Regional Weather Roundup
Issued by NWS Portland, ME

Home | Current Version | Previous Version | Text Only | Print | Product List | Glossary On
Versions: 1 2 3 4 5 6 7 8 9 10 11 12 13 14 15 16 17 18 19 20 21 22 23 24 25 26 27 28 29 30 31 32 33 34 35 36 37 38 39 40 41 42 43 44 45 46 47 48 49 50
000
ASUS41 KGYX 230210
RWRGYX
WEATHER ROUNDUP FOR MAINE AND NEW HAMPSHIRE
NATIONAL WEATHER SERVICE GRAY ME
900 PM EST MON JAN 22 2018

MEZ002-005-006-010-012-015-018-020-021-024-026-027-029-230300-
MAINE

CITY           SKY/WX    TMP DP  RH WIND       PRES   REMARKS
PORTLAND       LGT SNOW  22  20  92 N9        30.32F FOG
SANFORD        MIX PCPN  23  21  92 NE12      30.28S FOG     WCI  12
BAR HARBOR     FLURRIES  22   9  57 NE7       30.37F
WISCASSET      LGT SNOW  21  18  88 NE6       30.32F FOG
ROCKLAND       FLURRIES  23  16  74 NE10      30.35F WCI  12
FRYEBURG       LGT SNOW  22  22 100 NE6       30.30F FOG
LEWISTONAUBURN LGT SNOW  19  18  93 N7        30.32F FOG
AUGUSTA        LGT SNOW  19  16  88 NE5       30.32F VSB 1
WATERVILLE     LGT SNOW  18  15  88 NE7       30.30F VSB 1
BANGOR         LGT SNOW  20  15  81 SE3       30.38R
GREENVILLE       N/A     14  11  87 SE7       30.23F
MILLINOCKET    CLOUDY    21   7  54 E3        30.36F
HOULTON        CLOUDY    11   4  73 CALM      30.36F
PRESQUE ISLE   MOCLDY     8   1  73 N3        30.37F
FRENCHVILLE    FAIR       6  -4  63 N5        30.33F
CARIBOU        FAIR       9  -5  53 NE6       30.35F
$$

NHZ002-005-008-009-011-012-014-230300-
NEW HAMPSHIRE

CITY           SKY/WX    TMP DP  RH WIND       PRES   REMARKS
ROCHESTER      LGT SNOW  25  24  96 N7        30.26F FOG
NASHUA         LGT SNOW  29  29 100 N6        30.26S FOG
MANCHESTER     FRZ RAIN  28  26  92 NE8       30.24F FOG
CONCORD        LGT SNOW  27  24  89 N6        30.25F FOG
LACONIA        LGT SNOW  23  21  92 NE8       30.27S FOG
PLYMOUTH       LGT SNOW  26  24  94 CALM      30.26F
BERLIN         MIX PCPN  26  19  74 SE22G29   30.19F WCI  12
WHITEFIELD     MIX PCPN  33  24  69 SE15G36   30.13F
JAFFREY        FRZ RAIN  30  29  96 VRB3      30.19F
KEENE          FLURRIES  31  28  89 NE5       30.21F
LEBANON        MIX PCPN  30  26  85 E5        30.20F FOG
MT WASHINGTON  SNOWSHWR  16  16 100 S38G44      N/A  VSB 0   WCI  -6
$$

VTZ005-007-008-230300-
VERMONT

CITY           SKY/WX    TMP DP  RH WIND       PRES   REMARKS
ST JOHNSBURY     N/A     30  29  96 MISG      30.14F
MONTPELIER     FRZ RAIN  28  26  92 S14G22    30.15F WCI  17
BURLINGTON     FRZ RAIN  29  26  89 S9        30.07F
$$

MAZ007-012-024-CTZ003-RIZ002-NYZ038-NYZ072-230300-
SOUTHERN NEW ENGLAND AND NY

CITY           SKY/WX    TMP DP  RH WIND       PRES   REMARKS
BOSTON         LGT RAIN  38  38 100 NE5       30.22F FOG
WORCESTER      FRZ RAIN  31  29  92 NE7       30.17F VSB 1/2
NANTUCKET      CLOUDY    41  41 100 E17       30.21F
PROVIDENCE     DRIZZLE   38  38 100 NE5       30.21F FOG
HARTFORD       CLOUDY    36  35  96 N7        30.19F FOG
ALBANY         CLOUDY    38  34  85 S14       30.09F
NEW YORK CITY  CLOUDY    37  34  89 NE13      30.12F FOG
$$

ANZ081-ANZ082-ANZ150-NHZ014-MEZ023>029-230300-
COASTAL MARINE OBSERVATIONS

STATION/POSITION TIME  TEMP    WIND        PRES    WAVE
                       AIR SEA DIR/SP/G            HT/PER
                 (UTC) (F)     (DEG/KT/KT) (MB)    (FT/S)
MOUNT DESERT ROC 0200   32      70/ 23/ 26 1027.2F
MATINICUS ROCK   0100   32      80/ 22/ 23 1026.9F
ISLE OF SHOALS   0100   38      70/ 20/ 22 1024.0F
JEFFREYS LEDGE   0136      42                N/A     7/ 7
GEORGES BANK BUO 0050   41 55              1029.2    4/ 8
$$

.............KEY..............
   WCI - WIND CHILL
   TC  - TEMPERATURE IN CELSIUS
   VSB - VISIBILITY IN MILES
   HX  - HEAT INDEX
   FAIR- INDICATES FEW OR NO CLOUDS BELOW 12,000 FT, WITH NO
         SIGNIFICANT WEATHER AND/OR OBSTRUCTIONS TO VISIBILITY.






USA.gov is the U.S. government's official web portal to all federal, state and local government web resources and services.